Meteo pe oră la Dachnow

Astăzi, 12 Aprilie, Luni

Timp Temperatura Precipitaţii Vânt Presiune Umiditate
00:00 +8°C° 0 mm 4 m/s 745 mmHg 65%
01:00 +9°C° 0 mm 3 m/s 745 mmHg 67%
02:00 +9°C° 0 mm 3 m/s 745 mmHg 69%
03:00 +9°C° 0.1 mm 3 m/s 745 mmHg 73%
04:00 +8°C° 0.1 mm 4 m/s 744 mmHg 77%
05:00 +8°C° 0.1 mm 4 m/s 744 mmHg 82%
06:00 +10°C° 0 mm 4 m/s 744 mmHg 78%
07:00 +10°C° 0 mm 5 m/s 744 mmHg 74%
08:00 +10°C° 0 mm 5 m/s 744 mmHg 70%
09:00 +13°C° 0 mm 5 m/s 744 mmHg 63%
10:00 +15°C° 0 mm 6 m/s 744 mmHg 57%
11:00 +16°C° 0 mm 6 m/s 744 mmHg 50%
12:00 +16°C° 0 mm 6 m/s 744 mmHg 50%
13:00 +17°C° 0 mm 6 m/s 743 mmHg 49%
14:00 +17°C° 0 mm 5 m/s 743 mmHg 49%
15:00 +16°C° 0 mm 5 m/s 743 mmHg 53%
16:00 +15°C° 0 mm 4 m/s 743 mmHg 58%
17:00 +14°C° 0 mm 3 m/s 743 mmHg 62%
18:00 +14°C° 0 mm 3 m/s 743 mmHg 65%
19:00 +14°C° 0 mm 2 m/s 743 mmHg 69%
20:00 +13°C° 0 mm 2 m/s 744 mmHg 72%
21:00 +13°C° 0 mm 2 m/s 744 mmHg 75%
22:00 +12°C° 0 mm 1 m/s 744 mmHg 77%
23:00 +12°C° 0 mm 1 m/s 744 mmHg 80%

Mâine, 13 Aprilie, Marţi

Timp Temperatura Precipitaţii Vânt Presiune Umiditate
00:00 +12°C° 0 mm 2 m/s 744 mmHg 82%
01:00 +10°C° 0 mm 2 m/s 744 mmHg 84%
02:00 +10°C° 0 mm 2 m/s 744 mmHg 86%
03:00 +9°C° 0.1 mm 3 m/s 744 mmHg 88%
04:00 +8°C° 0.1 mm 3 m/s 744 mmHg 90%
05:00 +8°C° 0.1 mm 3 m/s 744 mmHg 91%
06:00 +8°C° 0 mm 3 m/s 744 mmHg 90%
07:00 +6°C° 0 mm 4 m/s 744 mmHg 89%
08:00 +6°C° 0 mm 4 m/s 744 mmHg 88%
09:00 +6°C° 0 mm 4 m/s 744 mmHg 87%
10:00 +6°C° 0 mm 4 m/s 744 mmHg 87%
11:00 +7°C° 0 mm 4 m/s 745 mmHg 86%
12:00 +7°C° 0 mm 4 m/s 744 mmHg 85%
13:00 +7°C° 0 mm 4 m/s 744 mmHg 84%
14:00 +7°C° 0 mm 4 m/s 744 mmHg 82%
15:00 +6°C° 0 mm 5 m/s 744 mmHg 83%
16:00 +6°C° 0 mm 5 m/s 744 mmHg 83%
17:00 +6°C° 0 mm 5 m/s 743 mmHg 84%
18:00 +5°C° 0 mm 5 m/s 743 mmHg 84%
19:00 +5°C° 0 mm 5 m/s 743 mmHg 84%
20:00 +3°C° 0 mm 5 m/s 743 mmHg 85%
21:00 +3°C° 0.1 mm 5 m/s 743 mmHg 85%
22:00 +3°C° 0.1 mm 5 m/s 743 mmHg 86%
23:00 +4°C° 0.1 mm 4 m/s 743 mmHg 86%

Poimâine, 14 Aprilie, Miercuri

Timp Temperatura Precipitaţii Vânt Presiune Umiditate
00:00 +2°C° 0 mm 5 m/s 742 mmHg 87%
01:00 +2°C° 0 mm 5 m/s 742 mmHg 88%
02:00 +2°C° 0 mm 5 m/s 742 mmHg 89%
03:00 +2°C° 0 mm 5 m/s 742 mmHg 89%
04:00 +2°C° 0 mm 5 m/s 741 mmHg 89%
05:00 +1°C° 0 mm 5 m/s 741 mmHg 90%
06:00 +1°C° 0 mm 5 m/s 741 mmHg 90%
07:00 +1°C° 0 mm 5 m/s 741 mmHg 90%
08:00 +1°C° 0 mm 5 m/s 742 mmHg 91%
09:00 0°C° 0 mm 5 m/s 742 mmHg 91%
10:00 0°C° 0 mm 5 m/s 742 mmHg 92%
11:00 0°C° 0 mm 5 m/s 742 mmHg 93%
12:00 0°C° 0.1 mm 5 m/s 742 mmHg 94%
13:00 0°C° 0.1 mm 5 m/s 742 mmHg 94%
14:00 0°C° 0.1 mm 5 m/s 742 mmHg 95%
15:00 0°C° 0.3 mm 4 m/s 741 mmHg 96%
16:00 0°C° 0.3 mm 4 m/s 741 mmHg 97%
17:00 0°C° 0.3 mm 4 m/s 741 mmHg 98%
18:00 0°C° 0.3 mm 4 m/s 741 mmHg 98%
19:00 0°C° 0.3 mm 4 m/s 741 mmHg 98%
20:00 -1°C° 0.3 mm 4 m/s 741 mmHg 98%
21:00 0°C° 0.1 mm 4 m/s 741 mmHg 98%
22:00 +1°C° 0.1 mm 3 m/s 741 mmHg 98%
23:00 +1°C° 0.1 mm 3 m/s 741 mmHg 98%

15 Aprilie, Joi

Timp Temperatura Precipitaţii Vânt Presiune Umiditate
00:00 +1°C° 0.1 mm 3 m/s 741 mmHg 98%
01:00 +1°C° 0.1 mm 3 m/s 741 mmHg 98%
02:00 +1°C° 0.1 mm 3 m/s 741 mmHg 98%
03:00 +2°C° 0.2 mm 2 m/s 741 mmHg 98%
04:00 +2°C° 0.2 mm 2 m/s 741 mmHg 98%
05:00 +2°C° 0.2 mm 2 m/s 741 mmHg 99%
06:00 +2°C° 0.4 mm 2 m/s 741 mmHg 99%
07:00 +2°C° 0.4 mm 2 m/s 741 mmHg 99%
08:00 +2°C° 0.4 mm 2 m/s 741 mmHg 99%
09:00 +2°C° 0.1 mm 2 m/s 742 mmHg 99%
10:00 +2°C° 0.1 mm 2 m/s 742 mmHg 99%
11:00 +3°C° 0.1 mm 1 m/s 742 mmHg 99%
12:00 +2°C° 0 mm 2 m/s 742 mmHg 98%
13:00 +2°C° 0 mm 2 m/s 742 mmHg 98%
14:00 +2°C° 0 mm 2 m/s 742 mmHg 98%
15:00 +3°C° 0.1 mm 2 m/s 743 mmHg 98%
16:00 +3°C° 0.1 mm 2 m/s 743 mmHg 97%
17:00 +3°C° 0.1 mm 2 m/s 743 mmHg 97%
18:00 +3°C° 0.1 mm 2 m/s 743 mmHg 97%
19:00 +3°C° 0.1 mm 2 m/s 743 mmHg 98%
20:00 +2°C° 0.1 mm 3 m/s 743 mmHg 98%
21:00 +2°C° 0.4 mm 3 m/s 743 mmHg 98%
22:00 +2°C° 0.4 mm 3 m/s 743 mmHg 98%
23:00 +2°C° 0.4 mm 3 m/s 743 mmHg 98%

16 Aprilie, Vineri

Timp Temperatura Precipitaţii Vânt Presiune Umiditate
00:00 +2°C° 0.1 mm 3 m/s 743 mmHg 97%
01:00 +3°C° 0.1 mm 3 m/s 743 mmHg 97%
02:00 +3°C° 0.1 mm 3 m/s 743 mmHg 97%
03:00 +3°C° 0 mm 3 m/s 743 mmHg 97%
04:00 +2°C° 0 mm 3 m/s 743 mmHg 97%
05:00 +2°C° 0 mm 3 m/s 743 mmHg 97%
06:00 +2°C° 0 mm 3 m/s 743 mmHg 96%
07:00 +2°C° 0 mm 3 m/s 744 mmHg 95%
08:00 +2°C° 0 mm 3 m/s 744 mmHg 95%
09:00 +3°C° 0 mm 3 m/s 744 mmHg 95%
10:00 +3°C° 0 mm 3 m/s 744 mmHg 95%
11:00 +3°C° 0 mm 3 m/s 745 mmHg 95%
12:00 +3°C° 0 mm 3 m/s 745 mmHg 94%
13:00 +4°C° 0 mm 4 m/s 745 mmHg 93%
14:00 +4°C° 0 mm 4 m/s 745 mmHg 92%
15:00 +4°C° 0 mm 4 m/s 746 mmHg 91%
16:00 +4°C° 0 mm 4 m/s 746 mmHg 90%
17:00 +5°C° 0 mm 4 m/s 746 mmHg 89%
18:00 +4°C° 0 mm 4 m/s 746 mmHg 91%
19:00 +4°C° 0 mm 4 m/s 746 mmHg 92%
20:00 +3°C° 0 mm 4 m/s 747 mmHg 94%
21:00 +3°C° 0 mm 4 m/s 747 mmHg 95%
22:00 +3°C° 0 mm 4 m/s 747 mmHg 96%
23:00 +3°C° 0 mm 4 m/s 747 mmHg 97%

17 Aprilie, Sâmbătă

Timp Temperatura Precipitaţii Vânt Presiune Umiditate
00:00 +3°C° 0.1 mm 4 m/s 747 mmHg 98%
01:00 +4°C° 0.1 mm 3 m/s 747 mmHg 98%
02:00 +4°C° 0.1 mm 3 m/s 747 mmHg 98%
03:00 +4°C° 0.2 mm 3 m/s 747 mmHg 97%
04:00 +4°C° 0.2 mm 3 m/s 747 mmHg 97%
05:00 +4°C° 0.2 mm 3 m/s 748 mmHg 97%
06:00 +5°C° 0.1 mm 3 m/s 748 mmHg 96%
07:00 +5°C° 0.1 mm 3 m/s 748 mmHg 94%
08:00 +5°C° 0.1 mm 3 m/s 748 mmHg 93%
09:00 +5°C° 0 mm 3 m/s 748 mmHg 92%
10:00 +6°C° 0 mm 4 m/s 749 mmHg 91%
11:00 +6°C° 0 mm 4 m/s 749 mmHg 90%
12:00 +6°C° 0 mm 4 m/s 749 mmHg 88%
13:00 +7°C° 0 mm 4 m/s 749 mmHg 86%
14:00 +7°C° 0 mm 4 m/s 749 mmHg 84%
15:00 +8°C° 0 mm 4 m/s 749 mmHg 83%
16:00 +8°C° 0 mm 4 m/s 749 mmHg 82%
17:00 +8°C° 0 mm 4 m/s 749 mmHg 82%
18:00 +7°C° 0 mm 4 m/s 749 mmHg 83%
19:00 +8°C° 0 mm 3 m/s 750 mmHg 84%
20:00 +7°C° 0 mm 3 m/s 750 mmHg 85%
21:00 +7°C° 0 mm 3 m/s 750 mmHg 85%
22:00 +7°C° 0 mm 3 m/s 750 mmHg 85%
23:00 +7°C° 0 mm 3 m/s 750 mmHg 85%
Arată mai mult

Formular de consimțământ

Meteoprog și furnizorii noștri de servicii pot stoca și accesa date personale, precum cookies, identificatori de dispozitiv sau alte tehnologii similare pe dispozitivul dumneavoastră și procesa astfel de date pentru a personaliza conținutul și reclamele, dar și pentru a oferi caracteristici de social media și pentru a analiza traficul.

  • Stocarea și/sau accesarea informațiilor pe dispozitivul dumneavoastră

    Cookies, identificatori de dispozitiv sau alte informații pot fi stocate sau accesate pe dispozitiv în scopurile indicate mai sus.

  • Reclame și conținut personalizat, evaluarea reclamelor și a conținutului, informații despre audiențe și dezvoltarea produselor

    Reclamele și conținutul pot fi personalizate pe baza unui profil. Pot fi adăugate date suplimentare pentru a personaliza mai bine reclamele și conținutul. Performanța reclamelor și conținutului poate fi măsurată. Pot fi obținute informații despre utilizatorii care au văzut reclamele și conținutul. Aceste date pot fi utilizate pentru a dezvolta sau îmbunătăți experiența utilizatorilor, sistemele și software-ul.

Dând clic pe ‘Sunt de acord’, permiteți utilizarea cookie-urilor menționate, a identificatorilor de dispozitiv, balizelor web sau altor tehnologii similare. Setările pot fi modificate din browser-ul dispozitivului dumneavoastră.

În anumite scopuri, interesele legitime pot prima asupra consimțământului. Puteți citi mai multe informații în acest sens în Politica privind Confidențialitatea Datelor și Cookie.